Location: Writing-on-Stone Provincial Park
(49.0825°N, 111.6163°W)
Time: 00:02:01
(UTC-07:00)

Daily predictions for brighter satellites

Satellite Brightness Start Highest point End
(mag) Time Altitude Azimuth Time Altitude Azimuth Time Altitude Azimuth
CZ-4C R/B 3.7 04:01:32 46° E 04:01:32 46° E 04:07:23 10° ESE
COSMOS 2455 4.4 04:09:45 31° ENE 04:09:45 31° ENE 04:12:56 10° NE
Cosmos 2263 Rocket 4.1 04:40:34 21° NNE 04:40:34 21° NNE 04:42:22 10° NNE
Cosmos 371 Rocket 4.3 04:58:00 44° E 04:58:00 44° E 05:02:10 10° SE
USA 234 3.2 04:52:33 10° NE 04:58:49 68° N 04:58:49 68° N
COSMO-SKYMED 1 4.2 04:55:24 10° SE 04:58:04 31° ESE 04:58:04 31° ESE
Cosmos 2278 Rocket 4.3 04:58:43 10° SSE 05:03:09 24° ESE 05:07:36 10° NE
ATLAS 3B R/B 4.0 05:14:19 24° NNW 05:14:56 24° N 05:20:17 10° NE
Cosmos 1709 Rocket 4.1 05:09:15 10° S 05:15:32 78° E 05:21:56 10° NNE
Cosmos 1844 Rocket 2.7 05:16:17 69° SSE 05:16:52 76° ESE 05:22:27 10° NNE
CENTAUR R/B 3.3 05:17:52 41° NNW 05:17:52 41° NNW 05:24:33 10° NE
Meteor 2-13 Rocket 4.5 05:12:36 10° S 05:18:43 79° E 05:24:49 10° NNE
ATLAS CENTAUR R/B 2.1 05:26:18 51° E 05:26:18 51° E 05:29:47 10° SE
Cosmos 1570 Rocket 4.3 05:25:48 42° N 05:27:30 66° ENE 05:32:41 10° SSE
Cosmos 1844 3.7 05:31:36 32° SSW 05:34:25 80° ESE 05:40:07 10° NNE
IRS-1C Rocket 3.9 05:29:44 10° NNE 05:35:01 72° WNW 05:35:11 71° W
Cosmos-2242 4.2 05:32:04 10° SSE 05:36:07 41° E 05:40:10 10° NNE
CZ-2C R/B 3.5 05:33:24 10° NNE 05:37:45 40° E 05:42:09 10° SSE
Cosmos 1408 Rocket 4.0 05:37:28 23° N 05:40:04 59° ENE 05:44:24 10° SSE
BREEZE-M DEB (TANK) 2.9 05:40:18 82° ESE 05:40:18 82° ESE 05:47:08 10° E
Cosmos 2082 Rocket 3.1 05:36:54 19° NNW 05:40:43 46° NE 05:46:06 10° SE
Cosmos 1626 2.7 05:43:15 48° NE 05:43:53 57° ENE 05:47:33 10° SSE
Cosmos 614 Rocket 3.8 05:45:09 49° SW 05:46:30 77° WNW 05:51:37 10° NNE
BREEZE-M DEB (TANK) 2.9 05:45:34 49° W 05:47:06 87° N 05:50:13 10° E
SKYMED 2 3.8 05:43:10 10° S 05:46:41 54° SSW 05:46:41 54° SSW
CZ-4C R/B 3.1 05:46:45 42° W 05:48:29 50° WSW 05:56:03 10° SSE
Cosmos 2151 4.5 05:47:10 10° N 05:51:12 37° ENE 05:55:12 10° SE
COSMOS 2406 3.9 05:52:27 34° SW 05:52:27 34° SW 05:56:25 10° S
Cosmos 332 Rocket 3.8 05:51:48 58° WSW 05:51:51 58° WSW 05:56:37 10° S
COSMOS 2455 3.3 05:52:55 39° NW 05:53:13 39° NW 05:58:54 10° NNE
Cosmos 1741 Rocket 4.3 05:49:47 10° S 05:54:59 67° ESE 06:00:12 10° NNE
Cosmos 304 Rocket 4.4 05:52:13 18° N 05:55:37 54° ENE 06:00:19 10° SE
Tiangong 2 3.7 05:57:12 14° S 05:58:00 15° SSE 05:59:53 10° ESE
Cosmos 2074 Rocket 4.1 05:56:33 10° S 06:02:44 77° E 06:08:57 10° NNE
Cosmos 1743 Rocket 4.2 06:02:18 10° N 06:06:35 55° ENE 06:10:51 10° SSE
Cosmos 2181 Rocket 4.2 06:03:50 10° NNW 06:09:46 45° W 06:15:35 10° SSW
Radarsat Rocket 4.2 06:04:00 10° NNE 06:10:56 86° ESE 06:17:04 10° SSW
Cosmos 1833 Rocket 2.8 06:06:47 16° NNW 06:11:20 76° ENE 06:16:59 10° SSE
DMSP B5D1-3 4.5 06:10:15 10° S 06:15:19 62° WSW 06:20:24 10° NNW
CZ-4B R/B 3.9 06:10:53 10° N 06:15:05 30° NW 06:15:05 30° NW
SL-08 ROCKET BODY 4.4 06:11:28 10° SSW 06:17:11 55° WNW 06:23:02 10° N
EO 1 Del DPAF 3.5 06:14:05 10° S 06:17:44 45° W 06:17:54 44° W
IDEFIX/ARIANE 42P 2.5 06:14:47 10° N 06:20:01 65° WNW 06:25:14 10° SSW
Cosmos 2263 Rocket 3.9 06:22:17 15° NNW 06:22:17 15° NNW 06:25:19 10° N
MSX 3.8 06:17:53 10° NNE 06:23:41 88° ESE 06:29:26 10° SSW
Cosmos 1315 Rocket 4.5 06:26:12 19° SW 06:26:12 19° SW 06:27:43 10° SSW
Cosmos 1766 Rocket 3.9 06:23:23 26° NW 06:25:24 42° W 06:29:33 10° SSW
Cosmos 1140 Rocket 4.1 06:30:28 24° W 06:32:36 34° NW 06:37:18 10° N
Cosmos 2208 Rocket 4.4 06:29:33 19° NW 06:33:05 44° WSW 06:38:13 10° S
COSMO-SKYMED 1 3.7 06:32:17 10° SSW 06:35:18 23° WSW 06:35:18 23° WSW
Okean-O 3.0 06:32:49 10° N 06:36:59 40° WNW 06:41:07 10° SW
Cosmos 371 Rocket 4.3 06:36:43 24° W 06:37:41 26° W 06:41:42 10° SSW
PAYLOAD A 4.2 06:33:05 10° N 06:37:46 44° WNW 06:42:17 10° SW
Thor Agena Rocket 3.5 06:34:53 10° SSE 06:40:08 80° WSW 06:45:29 10° NNW
COSMOS 2441 4.3 06:35:40 10° N 06:40:27 68° WNW 06:45:13 10° SSW
USA 234 3.8 06:35:26 10° ENE 06:41:35 45° N 06:46:10 18° WNW
Feng Yun 1-1 Rocket 4.5 06:37:36 10° N 06:42:42 42° WNW 06:47:44 10° SW
SL-27 R/B 3.0 06:41:39 25° NW 06:43:11 38° WSW 06:46:35 10° S
MINOTAUR R/B 4.2 06:42:59 29° N 06:43:51 55° ENE 06:45:59 10° SE
Cosmos 1850 Rocket 4.2 06:39:19 10° SW 06:44:25 50° WNW 06:49:37 10° NNE
Cosmos 2327 Rocket 4.4 06:39:47 10° SSW 06:45:53 63° WNW 06:51:59 10° N
Cosmos 2278 Rocket 2.2 06:41:09 10° SW 06:46:47 64° WNW 06:52:26 10° NNE
Abrixas rocket 3.8 06:46:56 18° WSW 06:48:08 23° SSW 06:50:45 10° SSE
SMAP 3.5 06:44:20 10° NNE 06:48:59 65° ESE 06:53:36 10° S
Cosmos 1842 Rocket 3.5 06:46:46 10° S 06:51:15 83° W 06:55:46 10° N
CSL-04 Rocket 4.1 06:46:38 10° NNE 06:52:02 68° ESE 06:57:19 10° S
Cosmos 2154 Rocket 4.0 06:47:15 10° S 06:53:27 84° W 06:59:44 10° N
Cosmos 468 Rocket 4.4 06:49:16 12° NW 06:53:48 42° WSW 06:58:40 10° S
Cosmos 1814 Rocket 4.0 06:50:17 10° NNW 06:55:27 63° WSW 07:00:33 10° S
Meteor 2-15 4.4 06:52:59 10° NNW 06:59:02 76° W 07:05:05 10° S
SJ-12 4.2 06:55:43 10° N 06:59:40 45° WNW 07:03:36 10° SW
Cosmos 1844 Rocket 3.7 06:58:00 15° W 07:01:22 24° NW 07:05:54 10° N
Cosmos 841 Rocket 3.4 06:56:47 10° NNW 07:01:58 77° WSW 07:07:06 10° SSE
ATLAS CENTAUR R/B 2.9 07:02:34 15° W 07:04:15 19° WSW 07:07:17 10° SSW
USA 229 DEB 3.7 06:57:49 10° SW 07:04:37 85° NW 07:11:39 10° NE
USA 229 3.7 06:57:55 10° SW 07:04:43 86° NW 07:11:44 10° NE
Shenzhou-11 Module 3.8 07:03:16 10° WSW 07:05:47 24° S 07:08:18 10° SE
ATLAS 3B R/B 4.0 07:02:00 10° NW 07:07:51 29° NNE 07:13:30 10° E
CENTAUR R/B 4.1 07:05:03 12° NW 07:10:19 27° N 07:16:42 10° NE
Cosmos 1908 3.4 07:08:32 10° SSW 07:12:23 53° WNW 07:16:16 10° N
Cosmos 1763 Rocket 3.8 07:07:57 10° NNW 07:12:48 46° WSW 07:17:40 10° S
Cosmos 2184 Rocket 4.5 07:07:29 10° SW 07:13:15 38° WNW 07:19:09 10° N
Cosmos-2242 4.1 07:10:30 10° WSW 07:13:52 22° WNW 07:17:15 10° NNW
CZ-2C R/B 3.1 07:12:01 10° N 07:15:52 27° WNW 07:19:46 10° WSW
Cosmos 2058 3.9 07:13:24 10° NNW 07:17:01 28° W 07:20:37 10° SSW
Cosmos 1486 Rocket 4.4 07:12:28 10° SSW 07:17:47 74° ESE 07:23:07 10° NNE
Cosmos 1626 4.0 07:17:55 12° WNW 07:18:43 12° W 07:20:19 10° WSW
Timation 2 Rocket 4.0 07:12:38 10° NNW 07:18:59 85° ENE 07:25:03 10° SSE
Cosmos 1726 2.0 07:17:35 10° SSW 07:21:20 73° WNW 07:25:03 10° N
SL-8 Rocket 4.3 07:15:37 10° S 07:21:45 75° E 07:27:55 10° NNE
BREEZE-M DEB (TANK) 2.5 07:21:31 10° W 07:24:12 86° N 07:31:41 10° E
Cosmos 2082 Rocket 2.9 07:19:39 10° NW 07:24:40 34° WSW 07:29:39 10° S
Cosmos 2218 Rocket 4.5 07:19:44 10° S 07:26:01 69° E 07:32:15 10° NNE
CSL-04 Debris 4.2 07:21:35 10° NNE 07:27:05 72° WNW 07:32:33 10° SSW
Cosmos 482 Debris 2.9 07:25:29 12° WNW 07:27:08 55° NNE 07:29:27 10° E
Nadezhda 3 Rocket 4.5 07:22:12 10° NNW 07:28:04 40° W 07:33:52 10° SSW
Cosmos 2151 4.1 07:24:50 10° NW 07:28:19 24° W 07:31:46 10° SW
COSMOS 2487 2.5 07:26:26 10° NNW 07:29:58 65° WSW 07:33:28 10° S
Cosmos 1500 Rocket 4.5 07:26:26 10° NNW 07:30:12 28° W 07:33:55 10° SSW
Cosmos 1633 Rocket 3.7 07:26:59 10° N 07:31:21 61° ENE 07:35:42 10° SSE
ARGOS Delta rocket 4.1 07:27:04 10° SSE 07:31:58 85° ENE 07:37:11 10° N
Tiangong 2 3.1 07:31:28 10° SW 07:34:12 26° S 07:36:56 10° ESE
ALOS 2.9 07:29:38 10° NNE 07:34:18 65° ESE 07:38:57 10° S
METEOR-M 4.2 07:30:17 10° NNE 07:35:40 90° E 07:41:02 10° SSW
Cosmos 2369 Rocket 4.4 07:31:09 10° SSE 07:36:00 32° ESE 07:40:54 10° NE
Ariane Rocket 3.0 07:30:57 10° N 07:36:00 62° WNW 07:41:02 10° SSW
ERS-2 4.3 07:33:21 10° NNE 07:36:43 32° E 07:40:03 10° SSE
AQUARIUS 4.5 07:32:26 10° N 07:36:46 46° WNW 07:41:03 10° SW
CZ-4 R/B 1.5 07:33:23 10° N 07:37:27 54° WNW 07:41:24 10° SSW
Cosmos 1484 Rocket 3.6 07:34:46 10° N 07:37:57 27° WNW 07:41:07 10° SW
Meteor 2-14 Rocket 4.5 07:34:09 10° SSW 07:40:15 65° WNW 07:46:23 10° N
COSMOS 2455 4.5 07:37:13 10° NW 07:40:56 16° NNW 07:44:40 10° NNE
IRS-1A Rocket 4.5 07:36:56 10° NNE 07:42:47 89° ESE 07:48:41 10° SSW
